Other Public Products
Issued by NWS Grand Forks, ND

Home | Current Version | Previous Version | Graphics & Text | Print | Product List | Glossary On
Versions: 1 2 3 4 5 6 7 8 9 10 11 12 13 14 15 16 17 18 19 20 21 22 23 24 25 26 27 28 29 30 31 32 33 34 35 36 37 38 39 40 41 42 43 44 45 46 47 48 49 50
000
FPUS83 KFGF 170931
OPUFGF
PRAIRIE TO PINES WEATHER ROUNDUP
NATIONAL WEATHER SERVICE EASTERN NORTH DAKOTA/GRAND FORKS ND
400 AM CDT THU AUG 17 2017

 **SATELLITE DATA USED TO AUGMENT SKY COVER AT AUTOMATED STATIONS**
 *****  WEATHER ACROSS EASTERN NORTH DAKOTA  *****

CITY           SKY/WX    TMP DP  RH WIND       PRES   REMARKS
GRAND FORKS    FOG       60  60 100 N7        29.81S VSB 1/2
GRAND FORKS AF FOG       59  59 100 N10       29.82S VSB 1/2
GRAND CITY NWS NOT AVBL
BUXTON           N/A     60  60  99 NW9         N/A
DEVILS LAKE    FAIR      55  54  96 NW5       29.87S
FARGO          CLOUDY    63  62  97 N16       29.76S
WAHPETON ARPT  CLOUDY    61  59  94 N14G21    29.74S
$$

 *****  WEATHER ACROSS CENTRAL AND WESTERN NORTH DAKOTA  *****

CITY           SKY/WX    TMP DP  RH WIND       PRES   REMARKS
JAMESTOWN      FAIR      56  54  93 NW7       29.84S
BISMARCK       FAIR      56  54  93 CALM      29.90F
MINOT          FAIR      62  52  69 S7        29.87F
MINOT AFB      FAIR      59  52  77 SW7       29.86S
GARRISON         N/A     57  55  93 CALM      29.89S
WILLISTON      FAIR      64  54  69 NE7       29.85S
DICKINSON      FAIR      57  53  86 S8        29.88F
HETTINGER      FAIR      58  49  72 SE5       29.94F
$$

 *****  OTHER OBSERVATIONS NORTHEAST NORTH DAKOTA  *****

CITY           SKY/WX    TMP DP  RH WIND       PRES   REMARKS
WALHALLA       FOG       54  54 100 CALM      29.84S VSB 3/4
LANGDON        FOG       52  52 100 CALM      29.87S VSB 1/4
CAVALIER       FOG       55  55 100 CALM      29.83S VSB<1/4
GRAFTON        FOG       57  57 100 N7        29.85R VSB<1/4
CANDO          FAIR      52  52 100 N3        29.89R
FORT TOTTEN      N/A     57  57 100 CALM      29.95S
ROLLA          FAIR      48  48 100 CALM      29.88F
RUGBY          FAIR      52  52 100 CALM      29.87S
 ***** THE ABOVE OBSERVATIONS ARE NON NWS ARE NOT QUALITY
        CONTROLLED AND MAY MIS-REPORT RAIN FOR SNOW...
$$

 *****  OTHER OBSERVATIONS SOUTHEAST NORTH DAKOTA *****

CITY           SKY/WX    TMP DP  RH WIND       PRES   REMARKS
COOPERSTOWN    FOG       59  59 100 NW7       29.85R VSB<1/4
VALLEY CITY      N/A     57  57 100 NW8       29.85R
OAKES          NOT AVBL
GWINNER        SUNNY     59  59 100 NW9       29.80S
SHEYENNE NWR     N/A     61  61 100 N7        29.95S
BUFFALO          N/A     60  58  92 NW9         N/A
WYNDMERE       NOT AVBL
 ***** THE ABOVE OBSERVATIONS ARE NON NWS ARE NOT QUALITY
       CONTROLLED AND MAY MIS-REPORT RAIN FOR SNOW...
$$

  *****  WEATHER ACROSS NORTHERN MINNESOTA  *****

CITY           SKY/WX    TMP DP  RH WIND       PRES   REMARKS
FLAG ISLAND    CLOUDY    63  57  82 NE5       29.81S
WARROAD        CLOUDY    64  61  88 VRB3      29.81S
ROSEAU         CLOUDY    63  57  82 N7        29.81S
HALLOCK        FOG       57  55  94 N3        29.83R VSB 1/2
THF RVR FALLS  CLOUDY    63  61  94 N16       29.80S
HALSTAD          N/A     62  61  97 N12         N/A
FOSSTON        CLOUDY    61  59  94 N9        29.77S
BAUDETTE       CLOUDY    60  60 100 NE7       29.79F
WASKISH        LGT RAIN  61  59  94 NE8       29.77F
CROOKSTON      CLOUDY    63  61  94 N12       29.80R
$$
  *****  WEATHER ACROSS CENTRAL AND WEST MINNESOTA  *****

CITY           SKY/WX    TMP DP  RH WIND       PRES   REMARKS
BEMIDJI        RAIN      61  61  99 N6        29.75S
PARK RAPIDS    LGT RAIN  64  62  93 NE7       29.72S
WADENA         RAIN      63  63 100 N9        29.70S
DETROIT LAKES  DRIZZLE   63  63 100 N6        29.74F
MOORHEAD       CLOUDY    63  61  94 N10       29.77R
FERGUS FALLS   CLOUDY    64  64 100 N12G20    29.71S
ELBOW LAKE     LGT RAIN  64  64 100 NW14      29.70S
MORRIS MN      LGT RAIN  66  64  94 NW15      29.68S
STAPLES        RAIN      61  61 100 N13       29.67F
WHEATON        CLOUDY    63  61  94 NW16      29.74S
$$
  *****  WEATHER ELSEWHERE ACROSS MINNESOTA  *****

CITY           SKY/WX    TMP DP  RH WIND       PRES   REMARKS
DULUTH         LGT RAIN  60  60 100 E14       29.67F FOG
INTRNTL FALLS  LGT RAIN  61  59  93 NE5       29.79F FOG
ELY            LGT RAIN  57  57 100 N5        29.76F
CLOQUET        LGT RAIN  61  57  88 E13G22    29.64F
BRAINERD       LGT RAIN  61  60  97 N14       29.64F
HIBBING        LGT RAIN  58  57  97 VRB6      29.70F
ALEXANDRIA     LGT RAIN  64  64 100 N17G24    29.67S
SAINT CLOUD    CLOUDY    65  65 100 NE9G18    29.52F
MINNEAPOLIS    CLOUDY    67  64  90 SE9       29.49F
$$

  *****  WEATHER ACROSS SOUTH DAKOTA  *****

CITY           SKY/WX    TMP DP  RH WIND       PRES   REMARKS
SIOUX FALLS    CLOUDY    66  66 100 NW15      29.76R
BROOKINGS      CLOUDY    64  61  90 NW18      29.76R
WATERTOWN      CLOUDY    62  61  96 NW16      29.77R
HURON          FAIR      57  56  96 NW10      29.83S
SISSETON         N/A     63  62  97 NW16G24   29.74F
ABERDEEN       FAIR      57  56  96 NW7       29.83S
MITCHELL       FAIR      59  58  96 W9        29.84R
PIERRE         FAIR      56  51  84 SW8       29.90S
MOBRIDGE       FAIR      55  54  96 N5        29.88S FOG
RAPID CITY     FAIR      55  49  80 CALM      29.96F
$$

  *****  SOME WEATHER IN NEARBY STATES *****

CITY           SKY/WX    TMP DP  RH WIND       PRES   REMARKS
GLASGOW MT     FAIR      56  43  61 N6        29.83R
GREAT FALLS MT FAIR      59  29  31 SW13      29.96R
CHEYENNE WY    FAIR      53  44  71 SW8       30.18S
SCOTTSBLUFF NE FAIR      54  49  83 E7        30.06S
OMAHA NE       MOCLDY    67  61  81 W7        29.83R
DES MOINES IA  CLOUDY    68  64  87 W14       29.76S
DAVENPORT IA   NOT AVBL
CHICAGO IL     NOT AVBL
EAU CLAIRE WI  CLOUDY    70  68  93 S12       29.58S
LA CROSSE WI   MOCLDY    72  65  78 S14       29.62F
$$

  *****  SOME NATIONAL WEATHER *****

CITY           SKY/WX    TMP DP  RH WIND       PRES   REMARKS
LA GUARDIA NY  FAIR      71  59  65 NE6       30.02S
RALEIGH NC     MOCLDY    76  73  91 CALM      30.02F
ATLANTA GA     FAIR      77  73  87 W6        30.04S
NEW ORLEANS LA FAIR      78  77  96 S5        30.05R
OKLAHOMA CITY  MOCLDY    69  68  96 SW7       29.95F
ALBUQUERQUE NM FAIR      70  40  33 CALM      30.17R
SALT LAKE CITY FAIR      70  40  33 SE8       30.06R
LOS ANGELES CA FAIR      66  61  84 S5        29.97S
BOISE ID       FAIR      64  43  46 CALM      30.01R
SEATTLE WA     CLOUDY    63  58  83 SW5       30.13R
$$

*** WEATHER ACROSS MANITOBA...SASKATCHEWAN AND ONTARIO ***
                ***ONTARIO***

CITY           SKY/WX    TMP DP  RH WIND       PRES   REMARKS
GERALDTON      CLOUDY    54  52  94 NE2       29.92F
THUNDER BAY    LGT RAIN  61  59  94 NE10      29.82F
SIOUX LOOKOUT  CLOUDY    59  57  94 E5        29.85F
TORONTO        PTCLDY    64  61  88 E3        30.01F
BIG TROUT LK   CLOUDY    64  63  94 S5        29.87F
PICKLE LAKE    NOT AVBL
DRYDEN         CLOUDY    59  55  88 E3        29.84F
KENORA         CLOUDY    61  55  82 NE5       29.84F
$$
                *** MANITOBA***

CITY           SKY/WX    TMP DP  RH WIND       PRES   REMARKS
BRANDON        CLEAR     46  45  93 N5        29.86F
DAUPHIN        CLEAR     52  46  82 W9        29.85S
ISLAND LAKE    CLEAR     61  59  94 S2        29.83S
PILOT MOUND      N/A     50  48  93 SE3         N/A
THE PAS        CLEAR     54  50  87 S5        29.79S
THOMPSON       PTCLDY    55  54  94 SW2       29.73R
WINNIPEG       CLEAR     52  52 100 W5        29.84F
LYNN LAKE      CLOUDY    55  54  94 MISG      29.68S
CHURCHILL      LGT RAIN  63  57  82 S6        29.75S
GILLAM         FOG       61  59  94 S7        29.75F VSB 1
$$
                ***SASKATCHEWAN***

CITY           SKY/WX    TMP DP  RH WIND       PRES   REMARKS
ESTEVAN        TSTM      68  50  52 SE9       29.84F
KINDERSLEY     MOCLDY    61  48  63 E2        29.88F
LLOYDMINSTER   CLEAR     52  50  93 W10       29.86S FOG
PRINCE ALBERT  LGT RAIN  57  54  88 N8        29.86R
REGINA         PTCLDY    64  45  48 NE12      29.86F
YORKTON        CLEAR     52  48  87 VRB2      29.87F



USA.gov is the U.S. government's official web portal to all federal, state and local government web resources and services.